Tracking 29489 objects as of 9-Sep-2024
HD Live streaming from Space Station
objects crossing your sky now

GP-B

Track GP-B now!
10-day predictions
GP-B is classified as:


NORAD ID: 28230
Int'l Code: 2004-014A
Perigee: 630.5 km
Apogee: 635.0 km
Inclination: 89.8 °
Period: 97.2 minutes
Semi major axis: 7003 km
RCS: 10.7347 m2 (large)
Launch date: April 20, 2004
Source: United States (US)
Launch site: AIR FORCE WESTERN TEST RANGE (AFWTR)
Your satellite tracking list
Your tracking list is empty




NASA's NSSDC Master Catalog

Two Line Element Set (TLE):
1 28230U 04014A   24252.92163317  .00003738  00000-0  47877-3 0  9998
2 28230  89.8258  63.2926 0003272  87.1668 272.9930 14.81179041556605
Source of the keplerian elements: AFSPC